| time (UTC) | temp F | wind direction | speed MPH | gust MPH | rain 1hr in | rain 24hr in | rain mn in | humidity % | barometer mb |
| 20260506204617 | 48 | 356 | 8.0 | 13.0 | 0.00 | 0.00 | 0.41 | 83 | 1009.5 |
| 20260506203937 | 48 | 357 | 6.0 | 13.0 | 0.00 | 0.00 | 0.41 | 83 | 1009.4 |
| 20260506203257 | 0 | 357 | 8.0 | 4.0 | 0.00 | 0.00 | 0.41 | ||
| 20260506202509 | 49 | 357 | 7.0 | 16.0 | 0.00 | 0.00 | 0.41 | 83 | 1009.7 |
| 20260506201829 | 49 | 355 | 7.0 | 11.0 | 0.00 | 0.00 | 0.41 | 81 | 1009.6 |
| 20260506201149 | 0 | 357 | 6.0 | 6.0 | 0.00 | 0.00 | 0.41 | ||
| 20260506200400 | 50 | 357 | 4.0 | 4.0 | 0.00 | 0.00 | 0.41 | 77 | 1009.4 |
| 20260506195604 | 50 | 356 | 4.0 | 11.0 | 0.00 | 0.00 | 0.41 | 78 | 1009.3 |
| 20260506194923 | 51 | 357 | 4.0 | 10.0 | 0.00 | 0.00 | 0.41 | 77 | 1009.3 |
| 20260506194242 | 52 | 356 | 5.0 | 10.0 | 0.00 | 0.00 | 0.41 | 72 | 1009.2 |
| 20260506193603 | 0 | 356 | 7.0 | 9.0 | 0.00 | 0.00 | 0.41 | ||
| 20260506192813 | 52 | 356 | 6.0 | 10.0 | 0.00 | 0.00 | 0.41 | 67 | 1009.2 |
| 20260506192132 | 52 | 356 | 6.0 | 10.0 | 0.00 | 0.00 | 0.41 | 66 | 1009.1 |
| 20260506191452 | 54 | 357 | 3.0 | 8.0 | 0.00 | 0.00 | 0.41 | 63 | 1009.1 |
| 20260506190812 | 52 | 358 | 3.0 | 7.0 | 0.00 | 0.00 | 0.41 | 67 | 1009.1 |
| 20260506190132 | 0 | 357 | 2.0 | 4.0 | 0.00 | 0.00 | 0.41 | ||
| 20260506185259 | 0 | 358 | 4.0 | 6.0 | 0.00 | 0.00 | 0.41 | ||
| 20260506184508 | 54 | 359 | 1.0 | 5.0 | 0.00 | 0.00 | 0.41 | 65 | 1008.9 |
| 20260506183829 | 0 | 357 | 3.0 | 5.0 | 0.00 | 0.00 | 0.41 | ||
| 20260506183041 | 54 | 359 | 2.0 | 4.0 | 0.00 | 0.00 | 0.41 | 65 | 1008.9 |
| 20260506182401 | 53 | 357 | 1.0 | 5.0 | 0.00 | 0.00 | 0.41 | 62 | 1008.9 |
| 20260506181721 | 0 | 357 | 2.0 | 4.0 | 0.00 | 0.00 | 0.40 | ||
| 20260506180933 | 0 | 357 | 0.0 | 3.0 | 0.00 | 0.00 | 0.40 | ||
| 20260506175925 | 51 | 357 | 0.0 | 3.0 | 0.00 | 0.00 | 0.40 | 65 | 1009.0 |
| 20260506175241 | 0 | 357 | 0.0 | 0.0 | 0.00 | 0.00 | 0.40 | ||
| 20260506174224 | 0 | 358 | 1.0 | 3.0 | 0.00 | 0.00 | 0.40 | ||
| 20260506173327 | 52 | 355 | 0.0 | 0.0 | 0.00 | 0.00 | 0.40 | 67 | 1008.9 |
| 20260506172647 | 52 | 356 | 0.0 | 0.0 | 0.00 | 0.00 | 0.40 | 57 | 1009.0 |
| 20260506172012 | 52 | 355 | 0.0 | 0.0 | 0.00 | 0.00 | 0.40 | 60 | 1008.9 |
| 20260506171328 | 52 | 356 | 0.0 | 0.0 | 0.00 | 0.00 | 0.40 | 64 | 1009.0 |
| 20260506170647 | 52 | 359 | 0.0 | 0.0 | 0.00 | 0.00 | 0.40 | 68 | 1009.0 |
| 20260506170010 | 50 | 356 | 0.0 | 0.0 | 0.00 | 0.00 | 0.40 | 72 | 1009.0 |
| 20260506165221 | 50 | 357 | 0.0 | 0.0 | 0.00 | 0.00 | 0.40 | 76 | 1009.0 |
| 20260506164541 | 50 | 357 | 0.0 | 3.0 | 0.00 | 0.00 | 0.40 | 73 | 1009.0 |
| 20260506163750 | 50 | 356 | 0.0 | 4.0 | 0.00 | 0.00 | 0.40 | 73 | 1009.0 |
| 20260506163110 | 50 | 358 | 1.0 | 4.0 | 0.00 | 0.00 | 0.40 | 75 | 1008.9 |
| 20260506162430 | 51 | 358 | 0.0 | 3.0 | 0.00 | 0.00 | 0.40 | 74 | 1008.7 |
| 20260506161750 | 50 | 357 | 0.0 | 4.0 | 0.00 | 0.00 | 0.40 | 75 | 1008.6 |
| 20260506160958 | 0 | 354 | 1.0 | 4.0 | 0.00 | 0.00 | 0.40 | ||
| 20260506155839 | 51 | 359 | 0.0 | 3.0 | 0.00 | 0.00 | 0.40 | 77 | 1008.7 |
| 20260506155159 | 50 | 356 | 0.0 | 0.0 | 0.00 | 0.00 | 0.40 | 75 | 1008.7 |
| 20260506154519 | 50 | 357 | 0.0 | 0.0 | 0.00 | 0.00 | 0.40 | 77 | 1008.7 |
| 20260506153838 | 49 | 359 | 0.0 | 0.0 | 0.00 | 0.00 | 0.40 | 78 | 1008.7 |
| 20260506153158 | 49 | 357 | 0.0 | 0.0 | 0.00 | 0.00 | 0.40 | 78 | 1008.6 |
| 20260506152519 | 49 | 358 | 0.0 | 0.0 | 0.00 | 0.00 | 0.40 | 79 | 1008.6 |
| 20260506151838 | 49 | 356 | 0.0 | 4.0 | 0.00 | 0.00 | 0.40 | 78 | 1008.5 |
| 20260506151159 | 49 | 357 | 1.0 | 4.0 | 0.00 | 0.00 | 0.40 | 82 | 1008.5 |
| 20260506150519 | 0 | 357 | 0.0 | 2.0 | 0.00 | 0.00 | 0.40 | ||
| 20260506145620 | 49 | 358 | 0.0 | 0.0 | 0.00 | 0.00 | 0.40 | 83 | 1008.4 |
| 20260506144939 | 48 | 356 | 0.0 | 5.0 | 0.00 | 0.00 | 0.40 | 83 | 1008.3 |
| 20260506144259 | 48 | 355 | 0.0 | 5.0 | 0.00 | 0.00 | 0.40 | 84 | 1008.2 |
| 20260506143620 | 48 | 357 | 0.0 | 4.0 | 0.00 | 0.00 | 0.40 | 83 | 1008.0 |
| 20260506142940 | 48 | 359 | 0.0 | 3.0 | 0.00 | 0.00 | 0.40 | 85 | 1007.9 |
| 20260506142301 | 47 | 360 | 0.0 | 3.0 | 0.00 | 0.00 | 0.40 | 85 | 1008.0 |
| 20260506141622 | 47 | 356 | 0.0 | 3.0 | 0.00 | 0.00 | 0.40 | 83 | 1008.0 |
| 20260506140940 | 48 | 357 | 0.0 | 0.0 | 0.00 | 0.00 | 0.40 | 86 | 1008.1 |
| 20260506140301 | 0 | 357 | 0.0 | 4.0 | 0.00 | 0.00 | 0.40 | ||
| 20260506135507 | 47 | 357 | 0.0 | 0.0 | 0.00 | 0.00 | 0.40 | 84 | 1007.7 |
| 20260506134828 | 0 | 358 | 0.0 | 4.0 | 0.00 | 0.00 | 0.40 | ||
| 20260506133705 | 47 | 358 | 1.0 | 4.0 | 0.00 | 0.00 | 0.40 | 85 | 1007.4 |
| 20260506133025 | 0 | 357 | 1.0 | 4.0 | 0.00 | 0.00 | 0.40 | ||
| 20260506132236 | 47 | 356 | 0.0 | 5.0 | 0.00 | 0.00 | 0.40 | 85 | 1007.3 |
| 20260506131558 | 0 | 359 | 2.0 | 5.0 | 0.00 | 0.00 | 0.40 | ||
| 20260506130807 | 47 | 357 | 0.0 | 2.0 | 0.00 | 0.00 | 0.40 | 85 | 1007.6 |
| 20260506130127 | 47 | 359 | 0.0 | 4.0 | 0.00 | 0.00 | 0.40 | 86 | 1007.5 |
| 20260506125447 | 47 | 357 | 0.0 | 4.0 | 0.00 | 0.00 | 0.40 | 86 | 1007.4 |
| 20260506124807 | 47 | 356 | 0.0 | 4.0 | 0.00 | 0.00 | 0.40 | 86 | 1007.2 |
| 20260506124127 | 47 | 357 | 0.0 | 5.0 | 0.00 | 0.00 | 0.40 | 87 | 1007.2 |
| 20260506123447 | 47 | 357 | 1.0 | 6.0 | 0.00 | 0.00 | 0.40 | 86 | 1007.2 |
| 20260506122807 | 46 | 355 | 3.0 | 7.0 | 0.00 | 0.00 | 0.39 | 85 | 1007.3 |
| 20260506122127 | 47 | 358 | 4.0 | 6.0 | 0.00 | 0.00 | 0.39 | 85 | 1007.3 |
| 20260506121446 | 47 | 356 | 3.0 | 8.0 | 0.00 | 0.00 | 0.39 | 87 | 1007.2 |
| 20260506120808 | 47 | 356 | 2.0 | 8.0 | 0.00 | 0.00 | 0.39 | 89 | 1007.1 |
| 20260506120127 | 47 | 358 | 2.0 | 5.0 | 0.00 | 0.00 | 0.39 | 89 | 1007.0 |
| 20260506115447 | 0 | 357 | 3.0 | 3.0 | 0.00 | 0.00 | 0.39 | ||
| 20260506114659 | 46 | 357 | 6.0 | 9.0 | 0.00 | 0.00 | 0.38 | 89 | 1006.9 |
| 20260506114019 | 46 | 357 | 1.0 | 6.0 | 0.00 | 0.00 | 0.38 | 90 | 1007.0 |
| 20260506113344 | 0 | 357 | 0.0 | 7.0 | 0.00 | 0.00 | 0.38 | ||
| 20260506112550 | 46 | 357 | 4.0 | 9.0 | 0.00 | 0.00 | 0.38 | 90 | 1007.0 |
| 20260506111911 | 0 | 355 | 4.0 | 3.0 | 0.00 | 0.00 | 0.38 | ||
| 20260506111123 | 0 | 358 | 1.0 | 6.0 | 0.00 | 0.00 | 0.37 | ||
| 20260506110334 | 0 | 356 | 2.0 | 6.0 | 0.00 | 0.00 | 0.37 | ||
| 20260506105545 | 46 | 358 | 1.0 | 5.0 | 0.00 | 0.00 | 0.36 | 88 | 1007.2 |
| 20260506104907 | 0 | 357 | 0.0 | 7.0 | 0.00 | 0.00 | 0.36 | ||
| 20260506104116 | 0 | 358 | 3.0 | 8.0 | 0.00 | 0.00 | 0.36 | ||
| 20260506102847 | 46 | 355 | 4.0 | 9.0 | 0.00 | 0.00 | 0.35 | 87 | 1006.8 |
| 20260506102209 | 0 | 355 | 6.0 | 7.0 | 0.00 | 0.00 | 0.35 | ||
| 20260506101419 | 0 | 358 | 4.0 | 6.0 | 0.00 | 0.00 | 0.34 | ||
| 20260506100630 | 46 | 358 | 3.0 | 10.0 | 0.00 | 0.00 | 0.34 | 89 | 1006.7 |
| 20260506095951 | 0 | 355 | 5.0 | 10.0 | 0.00 | 0.00 | 0.34 | ||
| 20260506095200 | 47 | 356 | 4.0 | 10.0 | 0.00 | 0.00 | 0.33 | 89 | 1007.1 |
| 20260506094520 | 47 | 358 | 4.0 | 10.0 | 0.00 | 0.00 | 0.32 | 90 | 1007.2 |
| 20260506093839 | 47 | 357 | 1.0 | 8.0 | 0.00 | 0.00 | 0.32 | 92 | 1007.2 |
| 20260506093159 | 48 | 355 | 2.0 | 8.0 | 0.00 | 0.00 | 0.32 | 93 | 1007.2 |
| 20260506092519 | 48 | 357 | 2.0 | 9.0 | 0.00 | 0.00 | 0.31 | 94 | 1007.2 |
| 20260506091840 | 47 | 359 | 2.0 | 9.0 | 0.00 | 0.00 | 0.30 | 94 | 1006.9 |
| 20260506091200 | 48 | 358 | 1.0 | 7.0 | 0.00 | 0.00 | 0.30 | 94 | 1006.9 |
| 20260506090520 | 48 | 358 | 1.0 | 4.0 | 0.00 | 0.00 | 0.30 | 94 | 1006.8 |
| 20260506085841 | 48 | 358 | 0.0 | 4.0 | 0.00 | 0.00 | 0.28 | 93 | 1006.9 |
| 20260506085200 | 48 | 358 | 0.0 | 4.0 | 0.00 | 0.00 | 0.28 | 93 | 1006.9 |
| 20260506084521 | 48 | 358 | 0.0 | 4.0 | 0.00 | 0.00 | 0.26 | 93 | 1006.8 |
| 20260506083840 | 48 | 358 | 0.0 | 7.0 | 0.00 | 0.00 | 0.26 | 92 | 1006.8 |
| 20260506083200 | 48 | 357 | 4.0 | 3.0 | 0.00 | 0.00 | 0.26 | 93 | 1006.6 |
| 20260506082257 | 48 | 359 | 0.0 | 7.0 | 0.00 | 0.00 | 0.25 | 93 | 1006.7 |
| 20260506081618 | 0 | 358 | 1.0 | 7.0 | 0.00 | 0.00 | 0.24 | ||
| 20260506080827 | 0 | 359 | 0.0 | 7.0 | 0.00 | 0.00 | 0.24 | ||
| 20260506073137 | 0 | 356 | 2.0 | 6.0 | 0.00 | 0.00 | 0.22 | ||
| 20260506072348 | 0 | 359 | 0.0 | 2.0 | 0.00 | 0.00 | 0.22 | ||
| 20260506071443 | 49 | 356 | 1.0 | 5.0 | 0.00 | 0.00 | 0.21 | 95 | 1006.8 |
| 20260506070804 | 49 | 358 | 0.0 | 0.0 | 0.00 | 0.00 | 0.21 | 95 | 1006.9 |
| 20260506070124 | 0 | 358 | 0.0 | 0.0 | 0.00 | 0.00 | 0.20 | ||
| 20260506062433 | 0 | 357 | 0.0 | 0.0 | 0.00 | 0.00 | 0.17 | ||
| 20260506061645 | 0 | 359 | 0.0 | 0.0 | 0.00 | 0.00 | 0.16 | ||
| 20260506060858 | 0 | 358 | 0.0 | 6.0 | 0.00 | 0.00 | 0.16 | ||
| 20260506060107 | 49 | 359 | 1.0 | 6.0 | 0.00 | 0.00 | 0.15 | 95 | 1007.0 |
| 20260506050947 | 49 | 358 | 0.0 | 0.0 | 0.00 | 0.00 | 0.12 | 94 | 1008.1 |
| 20260506050307 | 49 | 358 | 0.0 | 0.0 | 0.00 | 0.00 | 0.11 | 93 | 1008.1 |
| 20260506044719 | 0 | 358 | 0.0 | 0.0 | 0.00 | 0.00 | 0.09 | ||
| 20260506043931 | 50 | 356 | 0.0 | 0.0 | 0.00 | 0.00 | 0.08 | 94 | 1007.9 |
| 20260506043250 | 49 | 356 | 0.0 | 0.0 | 0.00 | 0.00 | 0.08 | 94 | 1007.9 |
| 20260506042346 | 49 | 357 | 0.0 | 0.0 | 0.00 | 0.00 | 0.07 | 94 | 1007.9 |
| 20260506041706 | 49 | 357 | 0.0 | 0.0 | 0.00 | 0.00 | 0.06 | 94 | 1007.9 |
| 20260506041027 | 0 | 358 | 0.0 | 0.0 | 0.00 | 0.00 | 0.05 | ||
| 20260506040236 | 49 | 358 | 0.0 | 0.0 | 0.00 | 0.00 | 0.03 | 93 | 1007.8 |
| 20260506035557 | 0 | 356 | 0.0 | 0.0 | 0.00 | 0.00 | 0.03 | ||
| 20260506034806 | 49 | 357 | 0.0 | 0.0 | 0.00 | 0.00 | 0.03 | 93 | 1007.7 |
| 20260506034126 | 49 | 358 | 0.0 | 0.0 | 0.00 | 0.00 | 0.03 | 93 | 1007.7 |
| 20260506033446 | 50 | 358 | 0.0 | 0.0 | 0.00 | 0.00 | 0.02 | 93 | 1007.7 |
| 20260506032807 | 49 | 356 | 0.0 | 0.0 | 0.00 | 0.00 | 0.01 | 92 | 1007.6 |
| 20260506032128 | 0 | 358 | 0.0 | 0.0 | 0.00 | 0.00 | 0.01 | ||
| 20260506031227 | 0 | 358 | 0.0 | 0.0 | 0.00 | 0.00 | 0.00 | ||
| 20260506030438 | 50 | 358 | 0.0 | 0.0 | 0.00 | 0.00 | 0.56 | 93 | 1008.1 |
| 20260506025759 | 0 | 357 | 0.0 | 0.0 | 0.00 | 0.00 | 0.55 | ||
| 20260506024900 | 0 | 358 | 0.0 | 0.0 | 0.00 | 0.00 | 0.54 | ||
| 20260506024108 | 50 | 359 | 0.0 | 0.0 | 0.00 | 0.00 | 0.53 | 93 | 1008.5 |
| 20260506023429 | 0 | 358 | 0.0 | 0.0 | 0.00 | 0.00 | 0.53 | ||
| 20260506022527 | 50 | 358 | 0.0 | 0.0 | 0.00 | 0.00 | 0.51 | 93 | 1008.6 |
| 20260506021848 | 0 | 358 | 0.0 | 0.0 | 0.00 | 0.00 | 0.51 | ||
| 20260506020946 | 0 | 358 | 0.0 | 0.0 | 0.00 | 0.00 | 0.50 | ||
| 20260506020153 | 0 | 359 | 0.0 | 0.0 | 0.00 | 0.00 | 0.50 | ||
| 20260506015401 | 50 | 359 | 0.0 | 0.0 | 0.00 | 0.00 | 0.50 | 93 | 1008.4 |
| 20260506014722 | 0 | 358 | 0.0 | 0.0 | 0.00 | 0.00 | 0.49 | ||
| 20260506013820 | 50 | 357 | 0.0 | 0.0 | 0.00 | 0.00 | 0.49 | 93 | 1008.3 |
| 20260506013142 | 50 | 357 | 0.0 | 5.0 | 0.00 | 0.00 | 0.49 | 92 | 1008.3 |
| 20260506012500 | 50 | 358 | 0.0 | 5.0 | 0.00 | 0.00 | 0.49 | 91 | 1008.5 |
| 20260506011823 | 0 | 360 | 0.0 | 0.0 | 0.00 | 0.00 | 0.48 | ||
| 20260506011026 | 50 | 357 | 0.0 | 0.0 | 0.00 | 0.00 | 0.47 | 92 | 1008.7 |
| 20260506010347 | 0 | 357 | 0.0 | 0.0 | 0.00 | 0.00 | 0.47 | ||
| 20260506005556 | 50 | 357 | 0.0 | 0.0 | 0.00 | 0.00 | 0.46 | 93 | 1008.5 |
| 20260506004918 | 50 | 358 | 0.0 | 0.0 | 0.00 | 0.00 | 0.46 | 93 | 1008.4 |
| 20260506004243 | 0 | 359 | 0.0 | 0.0 | 0.00 | 0.00 | 0.45 | ||
| 20260506003445 | 49 | 358 | 0.0 | 0.0 | 0.00 | 0.00 | 0.44 | 93 | 1008.4 |
| 20260506002809 | 0 | 356 | 0.0 | 0.0 | 0.00 | 0.00 | 0.43 | ||
| 20260506002014 | 0 | 358 | 0.0 | 0.0 | 0.00 | 0.00 | 0.42 | ||
| 20260506001223 | 50 | 358 | 0.0 | 0.0 | 0.00 | 0.00 | 0.41 | 94 | 1008.4 |
| 20260506000543 | 49 | 359 | 0.0 | 0.0 | 0.00 | 0.00 | 0.40 | 94 | 1008.1 |
| 20260505235904 | 50 | 359 | 0.0 | 0.0 | 0.00 | 0.00 | 0.40 | 95 | 1008.1 |
| 20260505235225 | 50 | 359 | 0.0 | 0.0 | 0.00 | 0.00 | 0.39 | 95 | 1008.0 |
| 20260505234543 | 50 | 358 | 0.0 | 0.0 | 0.00 | 0.00 | 0.39 | 95 | 1008.0 |
| 20260505233903 | 50 | 358 | 0.0 | 0.0 | 0.00 | 0.00 | 0.38 | 95 | 1008.0 |
| 20260505233222 | 49 | 358 | 0.0 | 0.0 | 0.00 | 0.00 | 0.37 | 96 | 1007.9 |
| 20260505232545 | 49 | 360 | 0.0 | 0.0 | 0.00 | 0.00 | 0.36 | 95 | 1007.9 |
| 20260505231902 | 49 | 358 | 0.0 | 0.0 | 0.00 | 0.00 | 0.35 | 96 | 1007.9 |
| 20260505231223 | 0 | 358 | 0.0 | 0.0 | 0.00 | 0.00 | 0.35 | ||
| 20260505230436 | 48 | 358 | 0.0 | 0.0 | 0.00 | 0.00 | 0.34 | 95 | 1007.6 |
| 20260505225755 | 49 | 358 | 0.0 | 7.0 | 0.00 | 0.00 | 0.33 | 95 | 1007.8 |
| 20260505225114 | 48 | 358 | 2.0 | 8.0 | 0.00 | 0.00 | 0.32 | 95 | 1007.9 |
| 20260505224436 | 0 | 358 | 4.0 | 5.0 | 0.00 | 0.00 | 0.31 | ||
| 20260505223644 | 0 | 357 | 4.0 | 10.0 | 0.00 | 0.00 | 0.29 | ||
| 20260505222856 | 0 | 357 | 4.0 | 4.0 | 0.00 | 0.00 | 0.28 | ||
| 20260505221734 | 0 | 356 | 3.0 | 10.0 | 0.00 | 0.00 | 0.26 | ||
| 20260505220723 | 51 | 357 | 6.0 | 14.0 | 0.00 | 0.00 | 0.24 | 93 | 1007.6 |
| 20260505220045 | 51 | 357 | 8.0 | 14.0 | 0.00 | 0.00 | 0.22 | 93 | 1007.6 |
| 20260505215405 | 51 | 356 | 7.0 | 11.0 | 0.00 | 0.00 | 0.20 | 91 | 1007.5 |
| 20260505214725 | 0 | 356 | 7.0 | 10.0 | 0.00 | 0.00 | 0.19 | ||
| 20260505213709 | 52 | 356 | 10.0 | 14.0 | 0.00 | 0.00 | 0.16 | 89 | 1007.4 |
| 20260505213030 | 52 | 355 | 9.0 | 6.0 | 0.00 | 0.00 | 0.15 | 88 | 1007.1 |
| 20260505211905 | 0 | 353 | 9.0 | 7.0 | 0.00 | 0.00 | 0.13 | ||
| 20260505211003 | 52 | 357 | 7.0 | 12.0 | 0.00 | 0.00 | 0.11 | 88 | 1006.9 |
| 20260505210332 | 53 | 355 | 7.0 | 13.0 | 0.00 | 0.00 | 0.09 | 86 | 1006.9 |
| 20260505205644 | 54 | 355 | 8.0 | 18.0 | 0.00 | 0.00 | 0.07 | 83 | 1006.7 |
| 20260505205003 | 54 | 355 | 9.0 | 18.0 | 0.00 | 0.00 | 0.06 | 81 | 1006.4 |